DW8016 Arlington VA US current weather conditions

sailwx.info

Wind from 315 at 2 knots gusting 7

Air temperature 7.8° C
Dewpoint -0.4° C

Last reported at 2020-Jan-28 21:03 UTC.
Time now 2020-Jan-28 22:06 UTC

Location: N 38°54' W 077°08'.
View on Google Maps.

See reports from other nearby stations

  
Tides and Currents Weather Stations Pressure Air Temp Water Temp Dewpoint Dewpoint Depression Visibility Wind Speed Wind Dir Waves Ship Positions
date/time (UTC)wind fromknots sea level pressurealtimeterstation pressurevisibilityair tempwater tempwave heightnotes
2020-Jan-28 21:03 315 2 gusting 7 7.8
2020-Jan-28 20:52 338 1 gusting 6 7.8
2020-Jan-28 20:42 300 2 gusting 6 7.8
2020-Jan-28 20:31 317 3 gusting 7 7.8
2020-Jan-28 20:22 325 2 gusting 7 7.8
2020-Jan-28 20:12 321 0 gusting 6 7.8
2020-Jan-28 20:01 281 2 gusting 6 7.8
2020-Jan-28 19:52 300 2 gusting 6 7.8
2020-Jan-28 19:42 032 3 gusting 8 7.8
2020-Jan-28 19:31 338 2 gusting 8 7.2
2020-Jan-28 19:21 311 2 gusting 8 7.2
2020-Jan-28 19:11 342 3 gusting 12 7.2
2020-Jan-28 19:01 346 3 gusting 12 7.8
2020-Jan-28 18:51 344 3 gusting 10 7.8
2020-Jan-28 18:41 292 3 gusting 10 7.8
2020-Jan-28 18:31 288 3 gusting 7 7.2
2020-Jan-28 18:20 321 3 gusting 10 7.2
2020-Jan-28 18:10 317 3 gusting 13 7.2
2020-Jan-28 17:59 210 4 gusting 13 7.2
2020-Jan-28 17:50 312 3 gusting 7 7.2
2020-Jan-28 17:39 290 2 gusting 11 7.2
2020-Jan-28 17:29 259 3 gusting 11 7.2
2020-Jan-28 17:19 342 3 gusting 7 7.2
2020-Jan-28 17:09 325 3 gusting 10 7.2
2020-Jan-28 16:59 346 3 gusting 10 7.2
2020-Jan-28 16:49 009 3 gusting 8 7.8
2020-Jan-28 16:39 350 1 gusting 7 7.8
2020-Jan-28 16:28 013 2 gusting 7 8.9
2020-Jan-28 16:18 273 1 gusting 10 7.8
2020-Jan-28 16:08 355 3 gusting 10 7.2
2020-Jan-28 15:58 340 4 gusting 10 7.8
2020-Jan-28 15:48 277 3 gusting 9 7.8
2020-Jan-28 15:38 294 3 gusting 8 7.2
2020-Jan-28 15:28 316 3 gusting 8 7.2
2020-Jan-28 15:17 292 2 gusting 8 7.2
2020-Jan-28 15:08 009 3 gusting 8 6.7
2020-Jan-28 14:58 327 2 gusting 6 6.1
2020-Jan-28 14:48 6.1
2020-Jan-28 14:38 333 2 gusting 10 6.1
2020-Jan-28 14:28 304 2 gusting 8 5.6
2020-Jan-28 14:19 342 3 gusting 7 5.6
2020-Jan-28 14:08 321 3 gusting 7 5.6
2020-Jan-28 13:58 310 2 gusting 6 5.6
2020-Jan-28 13:48 325 1 gusting 7 5.0
2020-Jan-28 13:38 299 2 gusting 7 5.0
2020-Jan-28 13:27 296 1 gusting 5 4.4
2020-Jan-28 13:17 301 1 gusting 5 4.4
2020-Jan-28 13:07 318 0 gusting 4 3.9
2020-Jan-28 12:57 338 1 gusting 5 3.9
2020-Jan-28 12:47 313 1 gusting 5 3.9
2020-Jan-28 12:37 309 0 gusting 6 3.9
2020-Jan-28 12:27 304 1 gusting 6 3.9
2020-Jan-28 12:17 342 1 gusting 4 3.9
2020-Jan-28 12:07 325 1 gusting 4 4.4
2020-Jan-28 11:57 318 0 gusting 6 4.4
2020-Jan-28 11:47 296 2 gusting 6 4.4
2020-Jan-28 11:36 304 1 gusting 5 4.4
2020-Jan-28 11:26 273 1 gusting 6 4.4
2020-Jan-28 11:16 350 2 gusting 6 4.4
2020-Jan-28 11:06 312 1 gusting 5 4.4
2020-Jan-28 10:56 296 2 gusting 6 4.4
2020-Jan-28 10:46 330 2 gusting 6 4.4
2020-Jan-28 10:35 338 1 gusting 5 4.4
2020-Jan-28 10:25 320 1 gusting 6 4.4
2020-Jan-28 10:16 316 2 gusting 7 4.4
2020-Jan-28 10:05 321 1 gusting 7 4.4
2020-Jan-28 09:55 317 1 gusting 6 4.4
2020-Jan-28 09:45 326 2 gusting 6 4.4
2020-Jan-28 09:35 306 0 gusting 6 4.4
2020-Jan-28 09:25 304 0 gusting 6 4.4
2020-Jan-28 09:15 309 1 gusting 4 4.4
2020-Jan-28 09:05 309 1 gusting 4 4.4
2020-Jan-28 08:55 336 1 gusting 3 4.4
2020-Jan-28 08:45 336 1 gusting 5 4.4
2020-Jan-28 08:35 298 1 gusting 5 4.4
2020-Jan-28 08:25 338 1 gusting 5 4.4
2020-Jan-28 08:15 313 1 gusting 5 4.4
2020-Jan-28 08:05 324 0 gusting 4 4.4
2020-Jan-28 07:55 309 0 gusting 4 4.4
2020-Jan-28 07:44 315 1 gusting 4 4.4
2020-Jan-28 07:34 300 1 gusting 6 4.4
2020-Jan-28 07:24 318 0 gusting 6 4.4
2020-Jan-28 07:14 355 1 gusting 4 4.4
2020-Jan-28 07:04 298 1 gusting 6 4.4
2020-Jan-28 06:54 295 2 gusting 6 5.0
2020-Jan-28 06:44 301 2 gusting 6 5.0
2020-Jan-28 06:34 310 1 gusting 4 5.0
2020-Jan-28 06:24 308 1 gusting 5 5.0
2020-Jan-28 06:14 304 1 gusting 5 5.0
2020-Jan-28 06:04 331 1 gusting 5 5.0
2020-Jan-28 05:54 300 1 gusting 6 5.0
2020-Jan-28 05:44 303 1 gusting 6 5.0
2020-Jan-28 05:34 334 1 gusting 6 5.0
2020-Jan-28 05:24 298 1 gusting 6 5.0
2020-Jan-28 05:14 306 1 gusting 6 5.0
2020-Jan-28 05:04 319 1 gusting 9 5.0
2020-Jan-28 04:54 257 2 gusting 9 5.0
2020-Jan-28 04:44 333 1 gusting 6 5.0
2020-Jan-28 04:34 311 2 gusting 7 5.0
2020-Jan-28 04:24 317 2 gusting 10 5.0
2020-Jan-28 04:14 333 2 gusting 10 5.0
2020-Jan-28 04:03 312 2 gusting 7 5.0
2020-Jan-28 03:54 355 2 gusting 5 5.0
2020-Jan-28 03:44 333 1 gusting 5 5.6
2020-Jan-28 03:33 317 1 gusting 5 5.6
2020-Jan-28 03:23 291 1 gusting 6 5.6
2020-Jan-28 03:12 303 2 gusting 6 5.6
2020-Jan-28 03:03 299 1 gusting 6 5.6
2020-Jan-28 02:53 296 2 gusting 6 5.6
2020-Jan-28 02:43 295 2 gusting 6 5.6
2020-Jan-28 02:33 319 2 gusting 6 5.0
2020-Jan-28 02:23 291 1 gusting 4 5.0
2020-Jan-28 02:13 311 1 gusting 4 5.0
2020-Jan-28 02:03 298 0 gusting 4 5.0
2020-Jan-28 01:53 297 1 gusting 4 5.0
2020-Jan-28 01:44 311 1 gusting 4 5.0
2020-Jan-28 01:33 321 1 gusting 4 5.0
2020-Jan-28 01:23 305 1 gusting 5 5.0
2020-Jan-28 01:13 316 2 gusting 6 5.0
2020-Jan-28 01:02 311 2 gusting 7 5.6
2020-Jan-28 00:52 292 3 gusting 7 5.6
2020-Jan-28 00:42 323 2 gusting 7 5.6
2020-Jan-28 00:32 320 2 gusting 6 5.6
2020-Jan-28 00:22 304 2 gusting 6 6.1
2020-Jan-28 00:12 323 3 gusting 6 6.1
2020-Jan-28 00:02 345 2 gusting 6 6.1
2020-Jan-27 23:53 298 3 gusting 7 6.7
2020-Jan-27 23:43 306 2 gusting 8 6.7
2020-Jan-27 23:32 321 2 gusting 12 6.7
2020-Jan-27 23:23 322 3 gusting 12 6.7
2020-Jan-27 23:13 343 3 gusting 11 6.7
2020-Jan-27 23:03 329 2 gusting 8 6.7
2020-Jan-27 22:53 302 3 gusting 8 6.7
2020-Jan-27 22:43 319 2 gusting 6 7.2
2020-Jan-27 22:32 328 2 gusting 11 7.2
2020-Jan-27 22:22 304 2 gusting 11 7.2
2020-Jan-27 22:11 333 3 gusting 7 7.2
2020-Jan-27 22:01 323 2 gusting 6 7.2
2020-Jan-27 21:50 313 1 gusting 6 7.8
2020-Jan-27 21:40 324 0 gusting 5 7.8
2020-Jan-27 21:29 304 1 gusting 5 7.8
2020-Jan-27 21:19 329 1 gusting 6 8.3
2020-Jan-27 21:10 295 3 gusting 6 8.3
2020-Jan-27 21:00 323 1 gusting 5 8.3
2020-Jan-27 20:49 331 2 gusting 8 8.3
2020-Jan-27 20:40 323 3 gusting 8 8.3
2020-Jan-27 20:30 292 3 gusting 9 8.9
2020-Jan-27 20:20 320 2 gusting 12 8.9
2020-Jan-27 20:10 300 3 gusting 12 8.9
2020-Jan-27 20:01 298 2 gusting 11 8.9
2020-Jan-27 19:50 346 2 gusting 7 8.9
2020-Jan-27 19:40 344 2 gusting 6 8.9
2020-Jan-27 19:30 292 3 gusting 7 8.9
2020-Jan-27 19:20 311 1 gusting 8 8.9
2020-Jan-27 19:10 298 2 gusting 8 8.9
2020-Jan-27 19:00 294 1 gusting 4 9.4
2020-Jan-27 18:50 269 1 gusting 8 9.4
2020-Jan-27 18:40 290 3 gusting 8 9.4
2020-Jan-27 18:30 279 2 gusting 6 9.4
2020-Jan-27 18:20 297 2 gusting 6 9.4
2020-Jan-27 18:10 341 2 gusting 6 9.4
2020-Jan-27 18:00 313 2 gusting 7 9.4
2020-Jan-27 17:50 9.4
2020-Jan-27 17:40 300 5 gusting 14 9.4
2020-Jan-27 17:29 304 3 gusting 7 9.4
2020-Jan-27 17:19 292 2 gusting 10 10.0
2020-Jan-27 17:09 288 4 gusting 10 10.0
2020-Jan-27 16:59 308 2 gusting 7 10.6
2020-Jan-27 16:49 292 2 gusting 8 10.6
2020-Jan-27 16:39 318 2 gusting 8 11.1
2020-Jan-27 16:28 280 3 gusting 9 11.1
2020-Jan-27 16:18 302 3 gusting 15 11.1
2020-Jan-27 16:08 300 3 gusting 15 11.1
2020-Jan-27 15:58 311 1 gusting 6 10.0
2020-Jan-27 15:48 322 2 gusting 6 9.4
2020-Jan-27 15:38 319 2 gusting 7 9.4
2020-Jan-27 15:28 300 3 gusting 7 8.9
2020-Jan-27 15:18 279 2 gusting 9 8.3
2020-Jan-27 15:08 252 2 gusting 9 7.8
2020-Jan-27 14:58 254 1 gusting 6 7.8
2020-Jan-27 14:48 238 1 gusting 7 7.2
2020-Jan-27 14:39 240 2 gusting 7 6.7
2020-Jan-27 14:29 277 1 gusting 5 6.7
2020-Jan-27 14:19 239 1 gusting 5 6.1
2020-Jan-27 14:08 242 1 gusting 6 6.1
2020-Jan-27 13:58 256 2 gusting 6 5.6
2020-Jan-27 13:48 249 2 gusting 5 5.0
2020-Jan-27 13:38 236 1 gusting 4 5.0
2020-Jan-27 13:28 238 1 gusting 6 5.0
2020-Jan-27 13:18 251 2 gusting 6 4.4
2020-Jan-27 13:08 268 1 gusting 5 4.4
2020-Jan-27 12:58 267 1 gusting 5 4.4
2020-Jan-27 12:48 263 1 gusting 5 3.9
2020-Jan-27 12:38 294 1 gusting 5 3.9
2020-Jan-27 12:28 272 1 gusting 6 3.3
2020-Jan-27 12:18 245 1 gusting 6 2.8
2020-Jan-27 12:08 264 1 gusting 5 2.8
2020-Jan-27 11:58 261 1 gusting 4 2.2
2020-Jan-27 11:48 243 0 gusting 4 2.2
2020-Jan-27 11:38 231 1 gusting 4 2.2
2020-Jan-27 11:28 245 0 gusting 4 2.2
2020-Jan-27 11:18 244 2.2
2020-Jan-27 11:08 240 0 gusting 4 2.8
2020-Jan-27 10:58 240 1 gusting 6 2.8
2020-Jan-27 10:47 221 1 gusting 6 2.2
2020-Jan-27 10:37 249 2 gusting 6 2.2
2020-Jan-27 10:27 254 1 gusting 3 2.2
2020-Jan-27 10:17 250 1 gusting 4 2.2
2020-Jan-27 10:08 236 1 gusting 4 2.2
2020-Jan-27 09:58 242 1 gusting 3 1.7
2020-Jan-27 09:48 237 0 gusting 3 1.7
2020-Jan-27 09:38 241 0 gusting 2 1.7
2020-Jan-27 09:28 240 1.7
2020-Jan-27 09:18 240 2.2
2020-Jan-27 09:07 240 2.2
2020-Jan-27 08:57 240 2.8
2020-Jan-27 08:48 240 2.8
2020-Jan-27 08:37 240 0 gusting 5 2.8
2020-Jan-27 08:27 238 0 gusting 5 2.8
2020-Jan-27 08:17 220 1 gusting 3 2.8
2020-Jan-27 08:07 244 0 gusting 2 2.8
2020-Jan-27 07:57 248 0 gusting 3 2.8
2020-Jan-27 07:47 257 0 gusting 3 2.8
2020-Jan-27 07:37 248 3.3
2020-Jan-27 07:27 248 3.3
2020-Jan-27 07:17 248 3.9
2020-Jan-27 07:06 248 3.9
2020-Jan-27 06:56 248 3.9
2020-Jan-27 06:46 222 3.9
2020-Jan-27 06:36 167 3.9
2020-Jan-27 06:26 204 3.9
2020-Jan-27 06:16 266 3.9
2020-Jan-27 06:06 266 3.9
2020-Jan-27 05:56 266 3.9
2020-Jan-27 05:46 265 3.9
2020-Jan-27 05:36 265 0 gusting 3 3.3
2020-Jan-27 05:26 279 3.3
2020-Jan-27 05:15 279 3.3
2020-Jan-27 05:05 279 0 gusting 3 3.3
2020-Jan-27 04:56 279 0 gusting 5 3.3
2020-Jan-27 04:45 287 1 gusting 5 3.3
2020-Jan-27 04:35 299 0 gusting 3 3.3
2020-Jan-27 04:25 276 1 gusting 3 3.3
2020-Jan-27 04:15 321 0 gusting 1 3.3
2020-Jan-27 04:04 321 3.9
2020-Jan-27 03:54 321 3.9
2020-Jan-27 03:44 321 4.4
2020-Jan-27 03:34 321 4.4
2020-Jan-27 03:23 321 0 gusting 2 5.0
2020-Jan-27 03:14 322 5.0
2020-Jan-27 03:04 297 5.0
2020-Jan-27 02:54 297 5.6
2020-Jan-27 02:43 297 5.6
2020-Jan-27 02:34 299 5.6
2020-Jan-27 02:23 299 5.6
2020-Jan-27 02:13 299 5.6
2020-Jan-27 02:03 299 0 gusting 3 5.6
2020-Jan-27 01:53 313 0 gusting 3 5.6
2020-Jan-27 01:43 313 0 gusting 3 5.6
2020-Jan-27 01:33 323 0 gusting 5 5.6
2020-Jan-27 01:23 317 1 gusting 6 6.1
2020-Jan-27 01:13 326 2 gusting 6 6.1
2020-Jan-27 01:03 325 1 gusting 4 6.1
2020-Jan-27 00:54 306 0 gusting 5 6.1
2020-Jan-27 00:44 332 1 gusting 8 6.1
2020-Jan-27 00:34 315 1 gusting 9 6.1
2020-Jan-27 00:24 310 1 gusting 9 6.7
2020-Jan-27 00:14 307 1 gusting 6 6.7
2020-Jan-27 00:04 300 2 gusting 7 6.7
2020-Jan-26 23:53 288 1 gusting 11 6.7
2020-Jan-26 23:43 297 2 gusting 11 6.7
2020-Jan-26 23:33 324 0 gusting 6 6.7
2020-Jan-26 23:22 309 2 gusting 6 7.2
2020-Jan-26 23:12 281 1 gusting 6 7.2
2020-Jan-26 23:02 323 1 gusting 6 7.2
2020-Jan-26 22:52 293 1 gusting 4 7.2
2020-Jan-26 22:42 279 1 gusting 7 7.2
2020-Jan-26 22:32 340 1 gusting 7 7.2
2020-Jan-26 22:22 279 1 gusting 7 7.2
2020-Jan-26 22:12 292 1 gusting 5 7.2
2020-Jan-26 22:02 296 0 gusting 3 7.8